Year,Month,Day,Hour,Minute,Value (Times are PST for temperature in C)
2011,04,22,00,00,6.60
2011,04,22,00,01,6.60
2011,04,22,00,02,6.60
2011,04,22,00,03,6.60
2011,04,22,00,04,6.60
2011,04,22,00,05,6.60
2011,04,22,00,06,6.60
2011,04,22,00,07,6.60
2011,04,22,00,08,6.60
2011,04,22,00,09,6.60
2011,04,22,00,10,6.60
2011,04,22,00,11,6.60
2011,04,22,00,12,6.60
2011,04,22,00,13,6.60
2011,04,22,00,14,6.70
2011,04,22,00,15,6.70
2011,04,22,00,16,6.70
2011,04,22,00,17,6.70
2011,04,22,00,18,6.70
2011,04,22,00,19,6.70
2011,04,22,00,20,6.70
2011,04,22,00,21,6.70
2011,04,22,00,22,6.70
2011,04,22,00,23,6.70
2011,04,22,00,24,6.70
2011,04,22,00,25,6.70
2011,04,22,00,26,6.70
2011,04,22,00,27,6.70
2011,04,22,00,28,6.70
2011,04,22,00,29,6.70
2011,04,22,00,30,6.70
2011,04,22,00,31,6.70
2011,04,22,00,32,6.70
2011,04,22,00,33,6.70
2011,04,22,00,34,6.70
2011,04,22,00,35,6.60
2011,04,22,00,36,6.60
2011,04,22,00,37,6.60
2011,04,22,00,38,6.60
2011,04,22,00,39,6.60
2011,04,22,00,40,6.60
2011,04,22,00,41,6.60
2011,04,22,00,42,6.60
2011,04,22,00,43,6.60
2011,04,22,00,44,6.60
2011,04,22,00,45,6.60
2011,04,22,00,46,6.60
2011,04,22,00,47,6.60
2011,04,22,00,48,6.60
2011,04,22,00,49,6.60
2011,04,22,00,50,6.60
2011,04,22,00,51,6.60
2011,04,22,00,52,6.60
2011,04,22,00,53,6.50
2011,04,22,00,54,6.60
2011,04,22,00,55,6.60
2011,04,22,00,56,6.60
2011,04,22,00,57,6.60
2011,04,22,00,58,6.60
2011,04,22,00,59,6.60
2011,04,22,01,00,6.60
2011,04,22,01,01,6.60
2011,04,22,01,02,6.60
2011,04,22,01,03,6.60
2011,04,22,01,04,6.60
2011,04,22,01,05,6.60
2011,04,22,01,06,6.60
2011,04,22,01,07,6.60
2011,04,22,01,08,6.50
2011,04,22,01,09,6.50
2011,04,22,01,10,6.40
2011,04,22,01,11,6.40
2011,04,22,01,12,6.40
2011,04,22,01,13,6.40
2011,04,22,01,14,6.30
2011,04,22,01,15,6.30
2011,04,22,01,16,6.30
2011,04,22,01,17,6.30
2011,04,22,01,18,6.20
2011,04,22,01,19,6.20
2011,04,22,01,20,6.20
2011,04,22,01,21,6.20
2011,04,22,01,22,6.10
2011,04,22,01,23,6.10
2011,04,22,01,24,6.00
2011,04,22,01,25,6.00
2011,04,22,01,26,5.90
2011,04,22,01,27,5.90
2011,04,22,01,28,5.90
2011,04,22,01,29,5.90
2011,04,22,01,30,5.90
2011,04,22,01,31,5.90
2011,04,22,01,32,5.80
2011,04,22,01,33,5.80
2011,04,22,01,34,5.80
2011,04,22,01,35,5.80
2011,04,22,01,36,5.90
2011,04,22,01,37,5.90
2011,04,22,01,38,5.90
2011,04,22,01,39,5.90
2011,04,22,01,40,5.80
2011,04,22,01,41,5.80
2011,04,22,01,42,5.80
2011,04,22,01,43,5.80
2011,04,22,01,44,5.80
2011,04,22,01,45,5.80
2011,04,22,01,46,5.80
2011,04,22,01,47,5.80
2011,04,22,01,48,5.80
2011,04,22,01,49,5.80
2011,04,22,01,50,5.70
2011,04,22,01,51,5.70
2011,04,22,01,52,5.70
2011,04,22,01,53,5.60
2011,04,22,01,54,5.60
2011,04,22,01,55,5.50
2011,04,22,01,56,5.40
2011,04,22,01,57,5.40
2011,04,22,01,58,5.40
2011,04,22,01,59,5.30
2011,04,22,02,00,5.30
2011,04,22,02,01,5.30
2011,04,22,02,02,5.30
2011,04,22,02,03,5.20
2011,04,22,02,04,5.20
2011,04,22,02,05,5.10
2011,04,22,02,06,5.10
2011,04,22,02,07,5.00
2011,04,22,02,08,4.90
2011,04,22,02,09,4.90
2011,04,22,02,10,4.80
2011,04,22,02,11,4.80
2011,04,22,02,12,4.70
2011,04,22,02,13,4.60
2011,04,22,02,14,4.60
2011,04,22,02,15,4.50
2011,04,22,02,16,4.50
2011,04,22,02,17,4.40
2011,04,22,02,18,4.40
2011,04,22,02,19,4.30
2011,04,22,02,20,4.20
2011,04,22,02,21,4.20
2011,04,22,02,22,4.20
2011,04,22,02,23,4.10
2011,04,22,02,24,4.10
2011,04,22,02,25,4.10
2011,04,22,02,26,4.10
2011,04,22,02,27,4.10
2011,04,22,02,28,4.10
2011,04,22,02,29,4.00
2011,04,22,02,30,4.00
2011,04,22,02,31,4.00
2011,04,22,02,32,4.00
2011,04,22,02,33,4.00
2011,04,22,02,34,4.00
2011,04,22,02,35,4.00
2011,04,22,02,36,4.00
2011,04,22,02,37,4.00
2011,04,22,02,38,4.10
2011,04,22,02,39,4.10
2011,04,22,02,40,4.20
2011,04,22,02,41,4.30
2011,04,22,02,42,4.30
2011,04,22,02,43,4.40
2011,04,22,02,44,4.50
2011,04,22,02,45,4.50
2011,04,22,02,46,4.60
2011,04,22,02,47,4.60
2011,04,22,02,48,4.70
2011,04,22,02,49,4.70
2011,04,22,02,50,4.70
2011,04,22,02,51,4.70
2011,04,22,02,52,4.70
2011,04,22,02,53,4.70
2011,04,22,02,54,4.70
2011,04,22,02,55,4.70
2011,04,22,02,56,4.70
2011,04,22,02,57,4.80
2011,04,22,02,58,4.80
2011,04,22,02,59,4.70
2011,04,22,03,00,4.70
2011,04,22,03,01,4.60
2011,04,22,03,02,4.50
